N6AMQ-1 Weather Reports


time (UTC)temp
F
wind
direction
speed
knots
gust
knots
rain 1hr
in
rain 24hr
in
rain mn
in
humidity
%
barometer
mb
20260507015351 70 315 0.9 1.7 0.00 0.00 0.00 59 1017.9
20260507015248 70 315 0.0 2.6 0.00 0.00 0.00 59 1017.9
20260507014748 70 315 2.6 0.9 0.00 0.00 0.00 59 1017.9
20260507014248 70 315 1.7 2.6 0.00 0.00 0.00 59 1017.9
20260507013748 70 315 1.7 1.7 0.00 0.00 0.00 58 1017.9
20260507013350 71 292 1.7 1.7 0.00 0.00 0.00 58 1017.9
20260507013248 71 270 2.6 2.6 0.00 0.00 0.00 59 1017.9
20260507012748 71 270 1.7 1.7 0.00 0.00 0.00 59 1017.9
20260507012249 71 0 0.9 1.7 0.00 0.00 0.00 59 1017.9
20260507011748 71 338 2.6 2.6 0.00 0.00 0.00 59 1017.9
20260507011349 71 270 2.6 3.5 0.00 0.00 0.00 59 1017.9
20260507011248 71 292 1.7 3.5 0.00 0.00 0.00 59 1017.9
20260507010748 71 315 1.7 1.7 0.00 0.00 0.00 59 1017.9
20260507010248 71 292 0.9 3.5 0.00 0.00 0.00 59 1017.9
20260507005748 71 270 1.7 0.9 0.00 0.00 0.00 59 1017.9
20260507005353 71 315 0.0 1.7 0.00 0.00 0.00 59 1017.9
20260507005248 71 315 0.0 0.0 0.00 0.00 0.00 59 1017.9
20260507004750 72 0 0.9 0.9 0.00 0.00 0.00 59 1017.9
20260507003350 72 315 3.5 1.7 0.00 0.00 0.00 59 1017.9
20260507003248 72 270 2.6 2.6 0.00 0.00 0.00 59 1017.9
20260507002748 72 315 2.6 2.6 0.00 0.00 0.00 58 1017.9
20260507002248 72 270 2.6 1.7 0.00 0.00 0.00 59 1017.9
20260507001748 72 270 0.9 0.9 0.00 0.00 0.00 59 1017.9
20260507001350 72 270 0.0 2.6 0.00 0.00 0.00 58 1017.9
20260507001248 72 45 1.7 0.9 0.00 0.00 0.00 58 1017.9
20260507000748 72 0 0.9 0.0 0.00 0.00 0.00 59 1017.9
20260507000248 72 292 2.6 2.6 0.00 0.00 0.00 59 1017.9
20260506235748 72 315 3.5 4.3 0.00 0.00 0.00 58 1017.9
20260506235350 72 135 2.6 2.6 0.00 0.00 0.00 58 1017.9
20260506235248 72 45 3.5 3.5 0.00 0.00 0.00 58 1017.9
20260506234748 72 270 0.0 0.9 0.00 0.00 0.00 59 1017.9
20260506233748 73 315 3.5 3.5 0.00 0.00 0.00 58 1017.9
20260506233350 73 90 3.5 3.5 0.00 0.00 0.00 58 1017.9
20260506233248 73 292 3.5 2.6 0.00 0.00 0.00 58 1017.9
20260506232748 73 315 1.7 2.6 0.00 0.00 0.00 59 1017.9
20260506232248 73 315 3.5 1.7 0.00 0.00 0.00 58 1017.9
20260506231748 73 315 2.6 3.5 0.00 0.00 0.00 57 1017.9
20260506231351 73 315 2.6 3.5 0.00 0.00 0.00 58 1017.9
20260506231248 73 248 1.7 2.6 0.00 0.00 0.00 57 1017.9
20260506230748 73 0 2.6 2.6 0.00 0.00 0.00 57 1017.9
20260506225748 73 68 4.3 2.6 0.00 0.00 0.00 56 1017.9
20260506225351 73 315 3.5 3.5 0.00 0.00 0.00 57 1017.9
20260506225248 73 315 3.5 4.3 0.00 0.00 0.00 57 1017.9
20260506224248 72 338 2.6 1.7 0.00 0.00 0.00 56 1017.9
20260506223748 72 292 2.6 0.0 0.00 0.00 0.00 56 1017.9
20260506223350 72 0 1.7 0.0 0.00 0.00 0.00 56 1017.9
20260506223248 72 22 2.6 3.5 0.00 0.00 0.00 56 1017.9
20260506222248 72 270 1.7 2.6 0.00 0.00 0.00 56 1019.0
20260506221748 72 292 1.7 0.9 0.00 0.00 0.00 57 1019.0
20260506221350 72 315 2.6 1.7 0.00 0.00 0.00 58 1019.0
20260506221248 72 45 1.7 2.6 0.00 0.00 0.00 57 1019.0
20260506220748 71 68 0.0 2.6 0.00 0.00 0.00 58 1017.9
20260506220248 71 270 0.9 0.0 0.00 0.00 0.00 59 1017.9
20260506215748 71 315 2.6 2.6 0.00 0.00 0.00 58 1019.0
20260506215350 71 68 2.6 1.7 0.00 0.00 0.00 58 1019.0
20260506214748 71 135 0.0 0.0 0.00 0.00 0.00 59 1019.0
20260506214248 71 315 1.7 3.5 0.00 0.00 0.00 58 1019.0
20260506213748 71 0 0.9 0.0 0.00 0.00 0.00 60 1019.0
20260506213350 71 45 0.9 0.0 0.00 0.00 0.00 58 1019.0
20260506213248 71 135 0.9 0.9 0.00 0.00 0.00 58 1019.0
20260506212748 71 270 1.7 1.7 0.00 0.00 0.00 58 1019.0
20260506212248 70 292 2.6 1.7 0.00 0.00 0.00 59 1019.0
20260506211748 70 22 2.6 1.7 0.00 0.00 0.00 59 1019.0
20260506211350 70 270 1.7 0.0 0.00 0.00 0.00 59 1019.0
20260506211248 70 225 0.9 0.9 0.00 0.00 0.00 59 1019.0
20260506210748 70 315 0.0 0.0 0.00 0.00 0.00 59 1020.0
20260506210248 70 0 0.9 1.7 0.00 0.00 0.00 59 1020.0
20260506205748 70 45 1.7 2.6 0.00 0.00 0.00 60 1020.0
20260506205349 70 270 0.9 1.7 0.00 0.00 0.00 60 1020.0
20260506205248 70 315 1.7 0.0 0.00 0.00 0.00 60 1020.0
20260506204248 69 338 1.7 2.6 0.00 0.00 0.00 60 1020.0
20260506203748 69 292 0.0 0.0 0.00 0.00 0.00 62 1020.0
20260506203350 69 338 0.9 1.7 0.00 0.00 0.00 61 1020.0
20260506203248 69 0 3.5 0.9 0.00 0.00 0.00 61 1020.0
20260506202748 69 68 1.7 3.5 0.00 0.00 0.00 62 1020.0
20260506202248 68 270 1.7 1.7 0.00 0.00 0.00 63 1020.0
20260506201748 68 45 0.0 1.7 0.00 0.00 0.00 63 1020.0
20260506201351 68 68 0.9 2.6 0.00 0.00 0.00 63 1020.0
20260506201248 68 68 0.9 0.9 0.00 0.00 0.00 63 1020.0
20260506200748 68 270 1.7 0.9 0.00 0.00 0.00 63 1020.0
20260506200248 68 90 1.7 0.0 0.00 0.00 0.00 63 1020.0
20260506195351 67 0 2.6 2.6 0.00 0.00 0.00 63 1020.0
20260506195248 67 315 1.7 2.6 0.00 0.00 0.00 63 1020.0
20260506194748 67 315 0.0 2.6 0.00 0.00 0.00 65 1020.0
20260506194248 67 315 2.6 0.0 0.00 0.00 0.00 65 1020.0
20260506193748 67 248 1.7 0.0 0.00 0.00 0.00 64 1020.0
20260506193351 67 315 1.7 0.9 0.00 0.00 0.00 65 1020.0
20260506193248 67 248 0.9 0.0 0.00 0.00 0.00 65 1020.0
20260506192248 66 315 0.0 0.9 0.00 0.00 0.00 68 1021.0
20260506191749 66 22 2.6 0.9 0.00 0.00 0.00 68 1021.0
20260506191350 66 315 0.0 0.0 0.00 0.00 0.00 68 1021.0
20260506191248 66 158 0.9 0.9 0.00 0.00 0.00 68 1021.0
20260506190748 66 292 1.7 3.5 0.00 0.00 0.00 68 1021.0
20260506190248 66 292 0.9 0.9 0.00 0.00 0.00 68 1021.0
20260506185748 65 315 0.9 2.6 0.00 0.00 0.00 67 1021.0
20260506185350 65 90 0.0 0.0 0.00 0.00 0.00 68 1021.0
20260506185248 65 90 0.0 0.0 0.00 0.00 0.00 68 1021.0
20260506184748 65 292 0.0 0.0 0.00 0.00 0.00 69 1021.0
20260506184248 65 90 0.0 0.0 0.00 0.00 0.00 68 1021.0
20260506183750 65 315 0.0 0.9 0.00 0.00 0.00 68 1021.0
20260506183350 64 270 0.0 0.0 0.00 0.00 0.00 69 1021.0
20260506183248 64 315 0.0 0.0 0.00 0.00 0.00 69 1021.0
20260506182748 64 338 0.0 0.0 0.00 0.00 0.00 69 1021.0
20260506182248 64 202 0.0 0.0 0.00 0.00 0.00 71 1021.0
20260506181748 63 338 0.0 0.0 0.00 0.00 0.00 71 1021.0
20260506181350 63 45 0.0 0.0 0.00 0.00 0.00 70 1021.0
20260506181248 63 248 0.0 0.0 0.00 0.00 0.00 70 1021.0
20260506180748 63 315 0.0 0.0 0.00 0.00 0.00 72 1021.0
20260506180248 63 315 0.0 0.0 0.00 0.00 0.00 73 1021.0
20260506175748 62 292 0.0 0.0 0.00 0.00 0.00 73 1021.0
20260506175350 62 270 0.0 0.0 0.00 0.00 0.00 74 1021.0
20260506175248 62 202 0.0 0.0 0.00 0.00 0.00 75 1021.0
20260506174248 61 270 0.0 0.0 0.00 0.00 0.00 75 1021.0
20260506173748 61 270 0.0 0.0 0.00 0.00 0.00 76 1021.0
20260506173350 60 45 0.0 0.0 0.00 0.00 0.00 77 1021.0
20260506173248 60 270 0.0 0.0 0.00 0.00 0.00 78 1021.0
20260506172748 60 180 0.0 0.0 0.00 0.00 0.00 77 1021.0
20260506172248 60 292 0.0 0.0 0.00 0.00 0.00 77 1021.0
20260506171748 60 68 0.0 0.0 0.00 0.00 0.00 77 1021.0
20260506171350 60 90 0.0 0.0 0.00 0.00 0.00 77 1021.0
20260506171248 60 45 0.0 0.0 0.00 0.00 0.00 77 1021.0
20260506170748 60 68 0.0 0.0 0.00 0.00 0.00 77 1021.0
20260506170248 59 68 0.0 0.0 0.00 0.00 0.00 77 1021.0
20260506165748 59 292 0.0 0.0 0.00 0.00 0.00 78 1021.0
20260506165349 59 270 0.0 0.0 0.00 0.00 0.00 78 1021.0
20260506165248 59 270 0.0 0.0 0.00 0.00 0.00 78 1021.0
20260506164248 59 315 0.0 0.0 0.00 0.00 0.00 79 1021.0
20260506163748 59 292 0.0 0.0 0.00 0.00 0.00 79 1021.0
20260506163350 58 315 0.0 0.0 0.00 0.00 0.00 80 1021.0
20260506163248 58 270 0.0 0.0 0.00 0.00 0.00 80 1021.0
20260506162748 58 270 0.0 0.0 0.00 0.00 0.00 80 1021.0
20260506162248 58 270 0.0 0.0 0.00 0.00 0.00 81 1021.0
20260506161748 58 270 0.0 0.0 0.00 0.00 0.00 81 1021.0
20260506161350 58 45 0.0 0.0 0.00 0.00 0.00 82 1021.0
20260506160748 58 112 0.0 0.0 0.00 0.00 0.00 82 1021.0
20260506160248 58 202 0.0 0.0 0.00 0.00 0.00 83 1021.0
20260506155748 57 90 0.0 0.0 0.00 0.00 0.00 83 1021.0
20260506155350 57 112 0.0 0.0 0.00 0.00 0.00 83 1021.0
20260506155248 57 112 0.0 0.0 0.00 0.00 0.00 83 1021.0
20260506154248 57 112 0.0 0.0 0.00 0.00 0.00 84 1021.0
20260506153748 57 202 0.0 0.0 0.00 0.00 0.00 85 1021.0
20260506153350 57 158 0.0 0.0 0.00 0.00 0.00 85 1021.0
20260506153248 57 45 0.0 0.0 0.00 0.00 0.00 85 1021.0
20260506152248 56 180 0.0 0.0 0.00 0.00 0.00 86 1021.0
20260506151748 56 315 0.0 0.0 0.00 0.00 0.00 86 1021.0
20260506151350 56 45 0.0 0.0 0.00 0.00 0.00 86 1021.0
20260506151248 56 45 0.0 0.0 0.00 0.00 0.00 86 1021.0
20260506150748 56 248 0.0 0.0 0.00 0.00 0.00 86 1021.0
20260506150248 56 158 0.0 0.0 0.00 0.00 0.00 86 1021.0
20260506145748 56 135 0.0 0.0 0.00 0.00 0.00 86 1021.0
20260506145350 56 202 0.0 0.0 0.00 0.00 0.00 86 1021.0
20260506145248 56 202 0.0 0.0 0.00 0.00 0.00 86 1021.0
20260506144748 56 248 0.0 0.0 0.00 0.00 0.00 87 1021.0
20260506144248 56 158 0.0 0.0 0.00 0.00 0.00 87 1021.0
20260506143749 55 158 0.0 0.0 0.00 0.00 0.00 87 1021.0
20260506143350 55 68 0.0 0.0 0.00 0.00 0.00 87 1021.0
20260506143248 55 68 0.0 0.0 0.00 0.00 0.00 87 1021.0
20260506142748 55 45 0.0 0.0 0.00 0.00 0.00 88 1021.0
20260506142248 55 68 0.0 0.0 0.00 0.00 0.00 88 1021.0
20260506141748 55 68 0.0 0.0 0.00 0.00 0.00 88 1021.0
20260506141433 55 112 0.0 0.0 0.00 0.00 0.00 88 1021.0
20260506141350 55 112 0.0 0.0 0.00 0.00 0.00 88 1021.0
20260506141249 55 112 0.0 0.0 0.00 0.00 0.00 88 1021.0
20260506140748 55 135 0.0 0.0 0.00 0.00 0.00 88 1021.0
20260506140248 55 135 0.0 0.0 0.00 0.00 0.00 88 1021.0
20260506135748 55 135 0.0 0.0 0.00 0.00 0.00 88 1021.0
20260506135350 54 135 0.0 0.0 0.00 0.00 0.00 88 1020.0
20260506135248 54 135 0.0 0.0 0.00 0.00 0.00 88 1020.0
20260506134748 54 270 0.0 0.0 0.00 0.00 0.00 88 1020.0
20260506134248 54 270 0.0 0.0 0.00 0.00 0.00 88 1020.0
20260506133748 54 270 0.0 0.0 0.00 0.00 0.00 87 1020.0
20260506133350 54 270 0.0 0.0 0.00 0.00 0.00 88 1020.0
20260506133248 54 270 0.0 0.0 0.00 0.00 0.00 87 1020.0
20260506132748 54 315 0.0 0.0 0.00 0.00 0.00 87 1020.0
20260506132248 54 315 0.0 0.0 0.00 0.00 0.00 87 1020.0
20260506131748 54 315 0.0 0.0 0.00 0.00 0.00 87 1020.0
20260506131350 54 315 0.0 0.0 0.00 0.00 0.00 87 1020.0
20260506131248 54 315 0.0 0.0 0.00 0.00 0.00 87 1020.0
20260506130748 54 270 0.0 0.0 0.00 0.00 0.00 87 1020.0
20260506130248 54 270 0.0 0.0 0.00 0.00 0.00 87 1020.0
20260506125748 54 270 0.0 0.0 0.00 0.00 0.00 87 1020.0
20260506125351 54 248 0.0 0.0 0.00 0.00 0.00 87 1020.0
20260506125248 54 248 0.0 0.0 0.00 0.00 0.00 87 1020.0
20260506124748 54 248 0.0 0.0 0.00 0.00 0.00 87 1020.0
20260506124248 54 248 0.0 0.0 0.00 0.00 0.00 87 1020.0
20260506123748 54 248 0.0 0.0 0.00 0.00 0.00 87 1020.0
20260506123350 54 248 0.0 0.0 0.00 0.00 0.00 87 1020.0
20260506122748 54 248 0.0 0.0 0.00 0.00 0.00 87 1020.0
20260506122248 54 248 0.0 0.0 0.00 0.00 0.00 86 1020.0
20260506121748 54 315 0.0 0.0 0.00 0.00 0.00 86 1020.0
20260506121352 54 315 0.0 0.0 0.00 0.00 0.00 86 1020.0
20260506121248 54 338 0.0 0.0 0.00 0.00 0.00 85 1020.0
20260506120748 54 338 0.0 0.0 0.00 0.00 0.00 85 1020.0
20260506120248 54 338 0.0 0.0 0.00 0.00 0.00 85 1020.0
20260506115748 54 22 0.0 0.0 0.00 0.00 0.00 84 1020.0
20260506115352 55 292 0.0 0.0 0.00 0.00 0.00 84 1020.0
20260506115248 55 270 0.0 0.0 0.00 0.00 0.00 84 1020.0
20260506114748 55 270 0.0 0.0 0.00 0.00 0.00 84 1020.0
20260506114248 55 270 0.0 0.0 0.00 0.00 0.00 84 1020.0
20260506113748 55 270 0.0 0.0 0.00 0.00 0.00 84 1020.0
20260506113350 55 270 0.0 0.0 0.00 0.00 0.00 84 1020.0
20260506113248 55 270 0.0 0.0 0.00 0.00 0.00 84 1020.0
20260506112748 55 270 0.0 0.0 0.00 0.00 0.00 84 1020.0
20260506112248 56 270 0.0 0.0 0.00 0.00 0.00 84 1020.0
20260506111351 56 270 0.0 0.0 0.00 0.00 0.00 83 1020.0
20260506111248 56 270 0.0 0.0 0.00 0.00 0.00 83 1020.0
20260506110748 56 270 0.0 0.0 0.00 0.00 0.00 83 1019.0
20260506110248 56 270 0.0 0.0 0.00 0.00 0.00 83 1019.0
20260506105350 56 270 0.0 0.0 0.00 0.00 0.00 82 1019.0
20260506104748 57 270 0.0 0.0 0.00 0.00 0.00 82 1019.0
20260506104248 57 270 0.0 0.0 0.00 0.00 0.00 82 1019.0
20260506103748 57 270 0.0 0.0 0.00 0.00 0.00 82 1019.0
20260506103350 57 270 0.0 0.0 0.00 0.00 0.00 82 1019.0
20260506103248 57 270 0.0 0.0 0.00 0.00 0.00 82 1019.0
20260506102748 57 270 0.0 0.0 0.00 0.00 0.00 81 1019.0
20260506102248 57 270 0.0 0.0 0.00 0.00 0.00 81 1019.0
20260506101748 58 270 0.0 0.0 0.00 0.01 0.00 81 1019.0
20260506101351 58 270 0.0 0.0 0.00 0.01 0.00 81 1019.0
20260506101248 58 270 0.0 0.0 0.00 0.01 0.00 81 1019.0
20260506100748 58 292 0.0 0.0 0.00 0.01 0.00 81 1019.0
20260506100248 58 315 0.0 0.0 0.00 0.01 0.00 81 1019.0
20260506095748 58 292 0.0 0.0 0.00 0.01 0.00 81 1019.0
20260506095350 58 315 0.0 0.0 0.00 0.01 0.00 81 1019.0
20260506095248 58 315 0.0 0.0 0.00 0.01 0.00 81 1019.0
20260506094748 58 315 0.0 0.0 0.00 0.01 0.00 80 1019.0
20260506094248 58 315 0.0 0.0 0.00 0.01 0.00 80 1019.0
20260506093748 58 315 0.0 0.0 0.00 0.01 0.00 80 1019.0
20260506093350 58 315 0.0 0.0 0.00 0.01 0.00 80 1019.0
20260506093248 58 315 0.0 0.0 0.00 0.01 0.00 80 1019.0
20260506092248 58 315 0.0 0.0 0.00 0.01 0.00 80 1019.0
20260506091748 58 315 0.0 0.0 0.00 0.01 0.00 80 1019.0
20260506091350 58 315 0.0 0.0 0.00 0.01 0.00 80 1019.0
20260506091248 58 315 0.0 0.0 0.00 0.01 0.00 79 1019.0
20260506090748 58 315 0.0 0.0 0.00 0.01 0.00 79 1019.0
20260506090248 58 315 0.0 0.0 0.00 0.01 0.00 79 1019.0
20260506085748 58 315 0.0 0.0 0.00 0.01 0.00 79 1019.0
20260506085350 58 338 0.0 0.0 0.00 0.01 0.00 79 1019.0
20260506085248 58 338 0.0 0.0 0.00 0.01 0.00 79 1019.0
20260506084748 58 0 0.0 0.0 0.00 0.01 0.00 79 1019.0
20260506084248 58 292 0.0 0.0 0.00 0.01 0.00 78 1019.0
20260506083748 58 270 0.0 0.0 0.00 0.01 0.00 78 1019.0
20260506083350 58 315 0.0 0.0 0.00 0.01 0.00 78 1019.0
20260506083248 58 292 0.0 0.0 0.00 0.01 0.00 78 1019.0
20260506082748 58 315 0.0 0.0 0.00 0.01 0.00 78 1019.0
20260506082248 58 315 0.0 0.0 0.00 0.01 0.00 78 1019.0
20260506081748 58 315 0.0 0.0 0.00 0.01 0.00 78 1019.0
20260506081350 58 315 0.0 0.0 0.00 0.01 0.00 77 1019.0
20260506081248 58 315 0.0 0.0 0.00 0.01 0.00 77 1019.0
20260506080748 58 315 0.0 0.0 0.00 0.01 0.00 77 1019.0
20260506080248 58 338 0.0 0.0 0.00 0.01 0.00 77 1019.0
20260506073351 58 338 0.0 0.0 0.00 0.01 0.00 76 1019.0
20260506073248 58 338 0.0 0.0 0.00 0.01 0.00 76 1019.0
20260506072748 59 338 0.0 0.0 0.00 0.01 0.00 77 1019.0
20260506072248 59 315 0.0 0.0 0.00 0.01 0.00 77 1019.0
20260506071748 59 45 0.0 0.0 0.00 0.01 0.00 77 1019.0
20260506071351 59 45 0.0 0.0 0.00 0.01 0.00 78 1019.0
20260506071248 59 45 0.0 0.0 0.00 0.01 0.00 78 1019.0
20260506070748 59 22 0.0 0.0 0.00 0.01 0.00 78 1019.0
20260506070248 59 90 0.0 0.0 0.00 0.01 0.00 78 1019.0
20260506062248 59 90 0.0 0.0 0.00 0.01 0.01 76 1019.0
20260506061748 59 90 0.0 0.0 0.00 0.01 0.01 76 1019.0
20260506061350 59 112 0.0 0.0 0.00 0.01 0.01 75 1019.0
20260506061248 59 112 0.0 0.0 0.00 0.01 0.01 75 1019.0
20260506060748 59 135 0.0 0.0 0.00 0.01 0.01 75 1017.9
20260506060248 59 112 0.0 0.0 0.00 0.01 0.01 75 1017.9
20260506051350 60 180 0.0 0.0 0.00 0.01 0.01 74 1017.9
20260506051248 60 180 0.0 0.0 0.00 0.01 0.01 74 1017.9
20260506050748 60 180 0.0 0.0 0.00 0.01 0.01 74 1017.9
20260506050248 60 180 0.0 0.0 0.00 0.01 0.01 74 1017.9
20260506044748 60 202 0.0 0.0 0.00 0.01 0.01 74 1017.9
20260506044248 60 270 0.0 0.0 0.00 0.01 0.01 74 1017.9
20260506043748 60 202 0.0 0.0 0.00 0.01 0.01 74 1017.9
20260506043350 60 180 0.0 0.0 0.00 0.01 0.01 73 1017.9
20260506043248 60 180 0.0 0.0 0.00 0.01 0.01 73 1017.9
20260506042748 60 202 0.0 0.0 0.00 0.01 0.01 73 1017.9
20260506042248 60 202 0.0 0.0 0.00 0.01 0.01 73 1017.9
20260506041748 60 180 0.0 0.0 0.00 0.01 0.01 73 1017.9
20260506041350 60 158 0.0 0.0 0.00 0.01 0.01 73 1017.9
20260506041248 60 135 0.0 0.0 0.00 0.01 0.01 73 1017.9
20260506040248 61 202 0.0 0.0 0.00 0.01 0.01 72 1016.9
20260506035748 61 202 0.0 0.0 0.00 0.01 0.01 72 1016.9
20260506035349 61 270 0.0 0.0 0.00 0.01 0.01 72 1016.9
20260506035248 61 270 0.0 0.0 0.00 0.01 0.01 72 1016.9
20260506034748 61 270 0.0 0.0 0.00 0.01 0.01 72 1016.9
20260506034248 61 270 0.0 0.0 0.00 0.01 0.01 71 1016.9
20260506033748 61 270 0.0 0.0 0.00 0.01 0.01 72 1016.9
20260506033351 61 270 0.0 0.0 0.00 0.01 0.01 72 1016.9
20260506033248 61 270 0.0 0.0 0.00 0.01 0.01 72 1016.9
20260506032748 61 270 0.0 0.0 0.00 0.01 0.01 72 1016.9
20260506032248 61 202 0.0 0.0 0.00 0.01 0.01 72 1016.9
20260506031748 61 292 0.0 0.0 0.00 0.01 0.01 71 1016.9
20260506031351 62 270 0.0 0.0 0.00 0.01 0.01 71 1016.9
20260506030748 62 292 0.0 0.0 0.00 0.01 0.01 70 1016.9
20260506025748 62 270 0.0 0.0 0.00 0.01 0.01 70 1016.9
20260506025350 62 292 0.0 0.0 0.00 0.01 0.01 70 1015.9
20260506025248 62 270 0.0 0.0 0.00 0.01 0.01 70 1015.9
20260506024748 62 180 0.0 0.0 0.00 0.01 0.01 70 1015.9
20260506024248 62 90 0.0 0.0 0.00 0.01 0.01 69 1015.9
20260506023350 62 180 0.0 0.0 0.00 0.01 0.01 69 1015.9
20260506023248 62 292 0.0 0.0 0.00 0.01 0.01 69 1015.9
20260506022248 62 202 0.0 0.0 0.00 0.01 0.01 69 1015.9
20260506021748 62 292 0.0 0.0 0.00 0.01 0.01 69 1015.9
20260506021350 62 202 0.0 0.0 0.00 0.01 0.01 68 1015.9
20260506021248 62 202 0.0 0.0 0.00 0.01 0.01 68 1015.9
20260506020748 62 158 0.0 0.0 0.00 0.01 0.01 69 1015.9
20260506020248 62 225 0.0 0.0 0.00 0.01 0.01 68 1015.9
20260506015748 62 270 0.0 0.0 0.00 0.01 0.01 69 1015.9